This is the latest recevied weather packets stored in our database for station/object KI8L. If no packets are shown the sender has not sent any weather packets the latest 1 day(s).
| Time | Temp. | Humidity | Pressure | Rain* | Wind** | Luminosity | Snow |
|---|---|---|---|---|---|---|---|
| 1778091380 | 12.78° C | 67% | 1014.3 hPa | 0 mm | - | 271 W/m² | - |
| 1778089863 | 13.33° C | 64% | 1014.5 hPa | 0 mm | - | 700 W/m² | - |
| 1778089562 | 13.33° C | 68% | 1014.2 hPa | 0 mm | - | 240 W/m² | - |
| 1778086534 | 12.78° C | 70% | 1014.2 hPa | 0 mm | - | 495 W/m² | - |
| 1778085927 | 12.78° C | 65% | 1014.2 hPa | 0 mm | - | 301 W/m² | - |
| 1778085016 | 12.78° C | 64% | 1014.4 hPa | 0 mm | - | 296 W/m² | - |
| 1778083502 | 11.67° C | 70% | 1014.1 hPa | 0 mm | - | 434 W/m² | - |
| 1778083199 | 11.67° C | 72% | 1014 hPa | 0 mm | - | 356 W/m² | - |
| 1778080579 | 10.56° C | 81% | 1013.7 hPa | 0 mm | - | 530 W/m² | - |
| 1778079972 | 10.56° C | 79% | 1013.4 hPa | 0 mm | - | 320 W/m² | - |
| 1778079366 | 10.56° C | 77% | 1013.4 hPa | 0 mm | - | 340 W/m² | - |
| 1778077550 | 9.44° C | 82% | 1013.2 hPa | 0 mm | - | 262 W/m² | - |
| 1778076644 | 9.44° C | 84% | 1013 hPa | 0 mm | - | 303 W/m² | - |
| 1778076341 | 9.44° C | 83% | 1013 hPa | 0 mm | - | 588 W/m² | - |
| 1778075735 | 8.33° C | 88% | 1013 hPa | 0 mm | - | 211 W/m² | - |
| 1778075431 | 8.33° C | 89% | 1013.4 hPa | 0 mm | - | 178 W/m² | - |
| 1778074218 | 7.78° C | 94% | 1013.1 hPa | 0 mm | - | 116 W/m² | - |
| 1778073915 | 7.78° C | 94% | 1013 hPa | 0 mm | - | 97 W/m² | - |
| 1778071191 | 7.22° C | 98% | 1012.1 hPa | 0 mm | - | 43 W/m² | - |
| 1778069678 | 6.67° C | 99% | 1011.7 hPa | 0 mm | - | 70 W/m² | - |
| 1778066955 | 6.67° C | 99% | 1011.8 hPa | 0 mm | - | 13 W/m² | - |
| 1778066653 | 6.67° C | 99% | 1011.8 hPa | 0 mm | - | 11 W/m² | - |
| 1778066048 | 6.11° C | 99% | 1011.5 hPa | 0 mm | - | 10 W/m² | - |
| 1778065442 | 6.67° C | 99% | 1011 hPa | 0 mm | - | 9 W/m² | - |
| 1778064835 | 6.67° C | 99% | 1011 hPa | 0 mm | - | 5 W/m² | - |
* Rain latest hour (hover to see other rain measurements)
** Current wind speed in m/s (hover to see current wind gust speed)